[[{"header":{"parameterUnit":"m.s-1","parameterCategory":2,"la1":30.2991,"la2":30.254,"lo1":-89.0895,"lo2":-89.0444,"dy":0.0017,"dx":0.0017,"nx":28,"ny":28,"refTime":"2024-04-11T09:00:00:Z","depth":"0","parameterNumber":2,"parameterNumberName":"U-component_of_CURRENTS"},"data":[0,0,0,0,0,0,0,0,0,0,0,0,0,0,0,0,0,0,0,0,0,0,0,0,0,0,0,0,0,0,0,0,0,0,0,0,0,0,0,0,0,0,0,0,0,0,0,0,0,0,0,0,0,0,0,0,0,0,-0.3245,-0.3245,0,-0.3281,-0.3281,-0.3282,-0.3189,-0.3187,-0.3184,-0.3182,-0.3123,-0.3124,-0.3125,0,0,0,0,0,0,0,0,0,0,0,0,0,-0.3149,-0.315,-0.3245,-0.3245,-0.3246,-0.3281,-0.3281,-0.3282,-0.319,-0.3187,-0.3183,-0.318,-0.3123,-0.3124,-0.3125,0,0,0,0,0,0,0,0,0,0,0,0,0,-0.3185,-0.3151,-0.3244,-0.3207,-0.3204,-0.3281,-0.3281,-0.3282,-0.319,-0.3186,-0.3183,-0.3179,-0.3123,-0.3124,-0.3125,-0.3211,0,0,-0.3129,-0.313,0,0,0,0,0,0,0,0,-0.3183,-0.3188,-0.3212,-0.321,-0.3207,-0.323,-0.3226,-0.3254,-0.3191,-0.3192,-0.3182,-0.3177,-0.3155,-0.3154,-0.3165,-0.3208,-0.3205,-0.3129,-0.313,-0.313,-0.3131,0,0,0,0,0,0,0,-0.318,-0.3186,-0.3255,-0.3213,-0.321,-0.3207,-0.3207,-0.3232,-0.319,-0.3192,-0.3186,-0.3197,-0.3152,-0.3165,-0.3163,-0.3204,-0.3129,-0.313,-0.3131,-0.3131,-0.3259,-0.3262,0,0,0,0,0,0,-0.3185,-0.3184,-0.3254,-0.3257,-0.3189,-0.3212,-0.3212,-0.3224,-0.3192,-0.3185,-0.32,-0.3193,-0.3164,-0.3162,-0.3161,-0.3193,-0.313,-0.3132,-0.3132,-0.3257,-0.326,-0.3263,0,0,0,0,0,0,-0.3183,-0.3191,-0.3253,-0.3224,-0.3232,-0.3218,-0.3232,-0.3226,-0.3221,-0.32,-0.319,-0.3198,-0.3161,-0.3159,-0.3185,-0.3191,-0.3132,-0.3133,-0.3254,-0.3258,-0.3261,-0.3299,0,0,0,0,0,0,-0.318,-0.319,-0.32,-0.3224,-0.3234,-0.3294,-0.3236,-0.323,-0.3236,-0.3226,-0.3196,-0.3187,-0.3158,-0.3184,-0.3187,-0.3192,-0.3134,-0.325,-0.3255,-0.326,-0.3295,-0.3304,-0.3312,0,0,0,0,0,-0.3177,-0.3209,-0.32,-0.3208,-0.3247,-0.3296,-0.3301,-0.3275,-0.324,-0.3252,-0.3237,-0.3187,-0.3216,-0.3188,-0.3191,-0.3196,-0.3248,-0.3254,-0.326,-0.3291,-0.3302,-0.3312,0,0,0,0,0,0,-0.3159,-0.3204,-0.3194,-0.3232,-0.326,-0.3281,-0.3298,-0.3286,-0.3288,-0.3271,-0.3234,-0.3227,-0.3242,-0.3241,-0.3211,-0.3253,-0.322,-0.3227,-0.3243,-0.3254,-0.3262,-0.3245,-0.3135,0,0,0,0,0,-0.3168,-0.3201,-0.3238,-0.3264,-0.3285,-0.3294,-0.3309,-0.3299,-0.3309,-0.3303,-0.3285,-0.3276,-0.328,-0.3281,-0.3284,-0.3328,-0.3275,-0.3334,-0.3343,-0.335,-0.3342,-0.3299,-0.3301,-0.3282,-0.3282,-0.3282,0,0,-0.3163,-0.3195,-0.3208,-0.3263,-0.3281,-0.3323,-0.3292,-0.3325,-0.3343,-0.3303,-0.3317,-0.3305,-0.33,-0.3326,-0.3334,-0.3319,-0.3326,-0.3357,-0.3363,-0.3351,-0.3305,-0.3306,-0.3307,-0.3286,-0.3285,-0.3285,0,0,-0.3181,-0.3207,-0.3241,-0.3282,-0.3328,-0.3345,-0.3356,-0.3386,-0.3378,-0.3419,-0.3377,-0.3381,-0.3402,-0.3389,-0.3388,-0.3463,-0.3369,-0.346,-0.349,-0.3449,-0.3448,-0.3447,-0.3356,-0.3347,-0.3468,-0.3468,-0.3468,0,-0.3165,-0.3215,-0.3257,-0.3311,-0.3336,-0.3356,-0.3391,-0.3417,-0.3443,-0.344,-0.3425,-0.3428,-0.343,-0.3436,-0.3461,-0.3475,-0.3416,-0.3441,-0.3454,-0.3452,-0.345,-0.3357,-0.3346,-0.3471,-0.3471,-0.347,-0.347,0,-0.3206,-0.3254,-0.3285,-0.335,-0.3392,-0.343,-0.3477,-0.3499,-0.3496,-0.3503,-0.3505,-0.3508,-0.3495,-0.3509,-0.3512,-0.3506,-0.3452,-0.3459,-0.3412,-0.3453,-0.3354,-0.3342,-0.3474,-0.3474,-0.3473,-0.3472,0,0,-0.3134,-0.3279,-0.3285,-0.3316,-0.341,-0.3437,-0.3497,-0.3534,-0.3532,-0.3559,-0.354,-0.3578,-0.355,-0.3549,-0.3537,-0.3522,-0.3469,-0.3492,-0.3489,-0.3373,-0.3325,-0.3211,-0.3185,-0.3464,-0.3463,-0.3463,-0.3249,0,-0.3133,-0.3224,-0.3304,-0.3369,-0.3409,-0.3471,-0.3511,-0.3551,-0.357,-0.3567,-0.3567,-0.3553,-0.3574,-0.3548,-0.3543,-0.3493,-0.3443,-0.3523,-0.3327,-0.332,-0.3191,-0.3171,-0.3021,-0.2811,-0.3236,-0.3234,-0.3233,0,-0.3124,-0.3189,-0.3255,-0.3355,-0.3375,-0.3417,-0.3454,-0.3497,-0.3531,-0.3539,-0.3539,-0.353,-0.3522,-0.3524,-0.3437,-0.348,-0.3403,-0.3358,-0.3348,-0.3218,-0.3184,-0.2848,-0.2772,-0.276,-0.3213,-0.3215,-0.3216,0,-0.3014,-0.3143,-0.3181,-0.322,-0.3343,-0.3364,-0.3409,-0.3466,-0.3479,-0.3501,-0.3489,-0.3486,-0.3441,-0.3396,-0.333,-0.3372,-0.3195,-0.3238,-0.3044,-0.3033,-0.2855,-0.283,-0.2718,-0.3138,-0.3138,-0.3139,-0.314,0,-0.2972,-0.3005,-0.3127,-0.3153,-0.3172,-0.328,-0.329,-0.3343,-0.3383,-0.337,-0.3442,-0.3398,-0.3406,-0.3324,-0.3283,-0.3104,-0.3146,-0.3018,-0.297,-0.2864,-0.2843,-0.2786,-0.2849,-0.3131,-0.3133,-0.3134,-0.3136,0,-0.2864,-0.2949,-0.2994,-0.3104,-0.3127,-0.3132,-0.3221,-0.3222,-0.3284,-0.3261,-0.326,-0.3292,-0.3191,-0.3154,-0.3042,-0.2995,-0.2811,-0.2787,-0.2638,-0.2577,-0.2423,-0.2495,-0.2343,-0.2279,-0.2548,-0.2544,-0.254,0,-0.2826,-0.2837,-0.2924,-0.293,-0.2982,-0.3017,-0.3032,-0.3137,-0.3149,-0.3177,-0.3142,-0.3068,-0.2979,-0.2781,-0.2671,-0.2512,-0.2583,-0.2305,-0.2384,-0.2362,-0.2408,-0.2491,-0.2457,-0.2146,-0.2139,-0.2134,-0.213,0,-0.2735,-0.2755,-0.2784,-0.2797,-0.2813,-0.2844,-0.2887,-0.2881,-0.2972,-0.2953,-0.2898,-0.2829,-0.2648,-0.2427,-0.2242,-0.2163,-0.2269,-0.2191,-0.2208,-0.2108,-0.2148,-0.208,-0.2325,-0.2083,-0.2088,-0.2091,-0.2094,-0.2096,-0.2631,-0.2616,-0.2634,-0.2632,-0.2655,-0.2646,-0.2592,-0.2637,-0.2603,-0.2516,-0.259,-0.2411,-0.2276,-0.1995,-0.1901,-0.1722,-0.1877,-0.1705,-0.1792,-0.1876,-0.1831,-0.1954,-0.1655,-0.1657,-0.1659,-0.166,-0.1662,0,-0.2484,-0.2475,-0.2471,-0.2455,-0.2416,-0.2483,-0.2461,-0.2358,-0.2235,-0.2199,-0.21,-0.1919,-0.1701,-0.1617,-0.1445,-0.1366,-0.1375,-0.1371,-0.1469,-0.1453,-0.1552,-0.1552,-0.1167,-0.1167,-0.1167,-0.1167,-0.1167,-0.1167,-0.2399,-0.2332,-0.2331,-0.221,-0.2196,-0.2052,-0.1987,-0.1851,-0.1771,-0.1545,-0.1433,-0.1399,-0.1404,-0.1484,-0.1345,-0.1265,-0.1294,-0.1228,-0.1323,-0.1429,-0.1469,-0.1507,-0.152,-0.1135,-0.1135,-0.1134,-0.1134,-0.1135]},{"header":{"parameterUnit":"m.s-1","parameterCategory":2,"la1":30.2991,"la2":30.254,"lo1":-89.0895,"lo2":-89.0444,"dy":0.0017,"dx":0.0017,"nx":28,"ny":28,"refTime":"2024-04-11T09:00:00:Z","depth":"0","parameterNumber":3,"parameterNumberName":"V-component_of_CURRENTS"},"data":[0,0,0,0,0,0,0,0,0,0,0,0,0,0,0,0,0,0,0,0,0,0,0,0,0,0,0,0,0,0,0,0,0,0,0,0,0,0,0,0,0,0,0,0,0,0,0,0,0,0,0,0,0,0,0,0,0,0,-0.0921,-0.092,0,-0.0779,-0.0777,-0.0775,-0.0689,-0.0689,-0.0689,-0.0689,-0.0432,-0.0425,-0.0419,0,0,0,0,0,0,0,0,0,0,0,0,0,-0.1017,-0.1017,-0.0922,-0.092,-0.0919,-0.0779,-0.0777,-0.0774,-0.069,-0.0689,-0.0689,-0.0689,-0.0434,-0.0426,-0.0418,0,0,0,0,0,0,0,0,0,0,0,0,0,-0.0933,-0.1016,-0.0922,-0.0862,-0.0855,-0.0779,-0.0777,-0.0774,-0.069,-0.0689,-0.0689,-0.0689,-0.0437,-0.0427,-0.0417,-0.0358,0,0,-0.0386,-0.0382,0,0,0,0,0,0,0,0,-0.0938,-0.0929,-0.0872,-0.0866,-0.0858,-0.0754,-0.0716,-0.063,-0.069,-0.0749,-0.0689,-0.0689,-0.0531,-0.0513,-0.0484,-0.0346,-0.0335,-0.0385,-0.0379,-0.0375,-0.0372,0,0,0,0,0,0,0,-0.0944,-0.0934,-0.0862,-0.087,-0.0862,-0.0806,-0.0795,-0.0699,-0.0639,-0.0744,-0.0738,-0.0727,-0.0526,-0.0494,-0.0477,-0.0331,-0.0386,-0.0377,-0.037,-0.0366,-0.0102,-0.0101,0,0,0,0,0,0,-0.0973,-0.094,-0.0867,-0.0858,-0.0902,-0.0805,-0.0792,-0.0785,-0.0642,-0.0622,-0.0727,-0.0724,-0.0512,-0.0489,-0.0468,-0.0389,-0.0375,-0.0365,-0.036,-0.0103,-0.0101,-0.01,0,0,0,0,0,0,-0.0976,-0.0968,-0.0872,-0.0898,-0.0882,-0.0805,-0.0797,-0.0783,-0.0757,-0.0631,-0.0608,-0.0719,-0.0511,-0.0482,-0.0382,-0.0378,-0.0361,-0.0352,-0.0104,-0.0102,-0.0101,-0.0231,0,0,0,0,0,0,-0.0979,-0.097,-0.0974,-0.09,-0.0882,-0.0834,-0.0797,-0.078,-0.0752,-0.0746,-0.0615,-0.0591,-0.0508,-0.0397,-0.0372,-0.0364,-0.0344,-0.0105,-0.0103,-0.0101,-0.0228,-0.0234,-0.0239,0,0,0,0,0,-0.0983,-0.0991,-0.0975,-0.0966,-0.089,-0.0835,-0.082,-0.0762,-0.0752,-0.0739,-0.065,-0.0596,-0.0367,-0.0388,-0.0358,-0.0348,-0.0106,-0.0104,-0.0102,-0.0225,-0.0233,-0.0239,0,0,0,0,0,0,-0.1027,-0.0981,-0.0962,-0.0954,-0.0903,-0.0822,-0.0804,-0.0774,-0.0696,-0.0685,-0.0579,-0.0547,-0.0458,-0.038,-0.0407,-0.0263,-0.0229,-0.022,-0.0333,-0.0339,-0.0345,-0.0377,-0.0335,0,0,0,0,0,-0.1043,-0.1042,-0.098,-0.0973,-0.0951,-0.0884,-0.0856,-0.0816,-0.0741,-0.0708,-0.0618,-0.0515,-0.0423,-0.0368,-0.0269,-0.019,-0.0129,-0.0162,-0.0168,-0.0173,-0.0177,-0.0121,-0.0123,-0.0093,-0.0093,-0.0093,0,0,-0.106,-0.1034,-0.1033,-0.0983,-0.0938,-0.0906,-0.0866,-0.0826,-0.0797,-0.0688,-0.0616,-0.0529,-0.0406,-0.0319,-0.0272,-0.0255,-0.0141,-0.0171,-0.0177,-0.0177,-0.0119,-0.0122,-0.0125,-0.0092,-0.0092,-0.0092,0,0,-0.1083,-0.1068,-0.1067,-0.1035,-0.0978,-0.0929,-0.0928,-0.0847,-0.081,-0.0732,-0.0651,-0.0571,-0.0421,-0.0342,-0.0283,-0.0258,-0.0177,-0.0222,-0.0274,-0.022,-0.0224,-0.0226,-0.013,-0.0123,-0.0224,-0.0224,-0.0224,0,-0.1096,-0.1097,-0.1055,-0.1041,-0.1024,-0.095,-0.0939,-0.0883,-0.078,-0.0757,-0.072,-0.0538,-0.0435,-0.0349,-0.0333,-0.0275,-0.0218,-0.0268,-0.0233,-0.0234,-0.0234,-0.0136,-0.0126,-0.023,-0.023,-0.0229,-0.0228,0,-0.1112,-0.1115,-0.1112,-0.1075,-0.1046,-0.1027,-0.0954,-0.0915,-0.0866,-0.0813,-0.0727,-0.0596,-0.0498,-0.0448,-0.0375,-0.0321,-0.0271,-0.0256,-0.0232,-0.0246,-0.0139,-0.0127,-0.0239,-0.0237,-0.0235,-0.0233,0,0,-0.1138,-0.1126,-0.1126,-0.1135,-0.1071,-0.1051,-0.1007,-0.0954,-0.0948,-0.0841,-0.0822,-0.0664,-0.0619,-0.0547,-0.0455,-0.0393,-0.0328,-0.033,-0.0324,-0.0263,-0.0179,-0.0115,-0.0094,-0.0322,-0.0321,-0.032,-0.0098,0,-0.116,-0.117,-0.1149,-0.1158,-0.116,-0.1104,-0.1083,-0.1028,-0.0965,-0.092,-0.0808,-0.0741,-0.0649,-0.0612,-0.0538,-0.0377,-0.0305,-0.0387,-0.0149,-0.014,-0.0107,-0.0081,-0.0006,0.0199,-0.0085,-0.0083,-0.0081,0,-0.1183,-0.1195,-0.1217,-0.1234,-0.123,-0.1222,-0.12,-0.1166,-0.1087,-0.1044,-0.0968,-0.0878,-0.075,-0.0691,-0.0445,-0.0504,-0.0354,-0.0232,-0.0221,-0.0111,-0.0055,0.0168,0.0233,0.042,-0.0062,-0.0063,-0.0065,0,-0.1243,-0.1248,-0.128,-0.1282,-0.1273,-0.1284,-0.127,-0.1215,-0.1206,-0.1126,-0.1108,-0.0961,-0.0873,-0.0692,-0.0423,-0.044,-0.0151,-0.0144,0.006,0.0069,0.0208,0.0226,0.0456,0.0007,0.0007,0.0006,0.0005,0,-0.1294,-0.1324,-0.1321,-0.1348,-0.1399,-0.1362,-0.1397,-0.1364,-0.1324,-0.1317,-0.1186,-0.1126,-0.0875,-0.0676,-0.045,-0.0136,-0.0167,0.0067,0.0124,0.0171,0.0182,0.0411,0.0468,0.0014,0.0013,0.0011,0.0009,0,-0.1367,-0.1362,-0.1413,-0.1428,-0.1437,-0.1477,-0.1492,-0.1516,-0.1459,-0.1441,-0.1424,-0.1234,-0.0958,-0.0678,-0.0342,-0.0158,0.0259,0.0233,0.0294,0.0353,0.0683,0.0729,0.1017,0.1145,0.0486,0.0489,0.0492,0,-0.1402,-0.1439,-0.1485,-0.1527,-0.1545,-0.1588,-0.1625,-0.1594,-0.1608,-0.1491,-0.1487,-0.1235,-0.1025,-0.0496,-0.012,0.0291,0.0426,0.057,0.0539,0.0728,0.0823,0.0843,0.093,0.0702,0.0706,0.0709,0.0712,0,-0.1477,-0.1499,-0.1546,-0.1637,-0.1694,-0.175,-0.1788,-0.1809,-0.1755,-0.1699,-0.1545,-0.1362,-0.0841,-0.0336,0.0176,0.042,0.0712,0.0646,0.0828,0.1002,0.1055,0.1196,0.0551,0.074,0.0737,0.0735,0.0733,0.0732,-0.1526,-0.1585,-0.165,-0.1738,-0.1818,-0.1888,-0.1903,-0.1904,-0.1885,-0.1719,-0.1555,-0.1145,-0.0495,0.0253,0.0503,0.1044,0.0972,0.1209,0.1255,0.1263,0.1365,0.079,0.1031,0.103,0.1029,0.1028,0.1028,0,-0.1553,-0.163,-0.1736,-0.1839,-0.1941,-0.1952,-0.1993,-0.1951,-0.1878,-0.1617,-0.1382,-0.0537,0.0096,0.0686,0.1384,0.1645,0.169,0.1772,0.1832,0.1896,0.1403,0.1389,0.1733,0.1733,0.1733,0.1732,0.1732,0.1732,-0.1573,-0.167,-0.1736,-0.1907,-0.1983,-0.203,-0.2025,-0.1925,-0.1713,-0.1194,-0.065,-0.022,0.054,0.1508,0.2109,0.2172,0.2385,0.2366,0.2465,0.2126,0.2077,0.2029,0.2032,0.2505,0.2506,0.2966,0.2971,0.2974]}],[{"header":{"parameterUnit":"m.s-1","parameterCategory":2,"la1":30.2991,"la2":30.254,"lo1":-89.0895,"lo2":-89.0444,"dy":0.0017,"dx":0.0017,"nx":28,"ny":28,"refTime":"2024-04-11T09:00:00:Z","depth":"2","parameterNumber":2,"parameterNumberName":"U-component_of_CURRENTS"},"data":[0,0,0,0,0,0,0,0,0,0,0,0,0,0,0,0,0,0,0,0,0,0,0,0,0,0,0,0,0,0,0,0,0,0,0,0,0,0,0,0,0,0,0,0,0,0,0,0,0,0,0,0,0,0,0,0,0,0,-0.2884,-0.2885,0,-0.3028,-0.3031,-0.3033,-0.306,-0.3058,-0.3056,-0.3054,-0.3106,-0.311,-0.3113,0,0,0,0,0,0,0,0,0,0,0,0,0,-0.2818,-0.2819,-0.2884,-0.2885,-0.2886,-0.3028,-0.3031,-0.3033,-0.306,-0.3058,-0.3056,-0.3053,-0.3105,-0.3109,-0.3113,0,0,0,0,0,0,0,0,0,0,0,0,0,-0.29,-0.2819,-0.2884,-0.2911,-0.2914,-0.3027,-0.3031,-0.3034,-0.3061,-0.3058,-0.3055,-0.3052,-0.3104,-0.3109,-0.3113,-0.3198,0,0,-0.3128,-0.313,0,0,0,0,0,0,0,0,-0.2895,-0.2903,-0.2906,-0.2909,-0.2913,-0.3017,-0.3027,-0.3082,-0.3061,-0.3013,-0.3054,-0.3051,-0.3065,-0.3073,-0.3118,-0.32,-0.3203,-0.3128,-0.3131,-0.3133,-0.3134,0,0,0,0,0,0,0,-0.2889,-0.2898,-0.2949,-0.2907,-0.2911,-0.298,-0.2987,-0.3039,-0.3057,-0.3017,-0.3017,-0.3023,-0.3067,-0.3114,-0.3119,-0.3203,-0.3128,-0.3132,-0.3135,-0.3137,-0.3289,-0.329,0,0,0,0,0,0,-0.285,-0.2892,-0.2944,-0.2952,-0.2889,-0.2982,-0.2991,-0.2992,-0.3058,-0.3064,-0.3025,-0.3023,-0.3107,-0.3114,-0.3121,-0.3158,-0.3133,-0.3137,-0.314,-0.3288,-0.3289,-0.329,0,0,0,0,0,0,-0.2848,-0.2853,-0.2938,-0.292,-0.2934,-0.2984,-0.2987,-0.2996,-0.3028,-0.3064,-0.3069,-0.3043,-0.3105,-0.3114,-0.3207,-0.3161,-0.3139,-0.3144,-0.3286,-0.3288,-0.329,-0.3273,0,0,0,0,0,0,-0.2845,-0.2851,-0.2854,-0.2917,-0.2933,-0.2966,-0.2989,-0.3001,-0.3033,-0.3032,-0.3082,-0.3085,-0.3104,-0.3201,-0.3212,-0.3167,-0.3147,-0.3285,-0.3287,-0.3289,-0.3272,-0.3274,-0.3276,0,0,0,0,0,-0.2843,-0.2828,-0.2853,-0.286,-0.2929,-0.2965,-0.298,-0.3013,-0.3036,-0.3037,-0.3127,-0.3082,-0.3219,-0.321,-0.3221,-0.3176,-0.3284,-0.3286,-0.3289,-0.3271,-0.3274,-0.3276,0,0,0,0,0,0,-0.2786,-0.2832,-0.2859,-0.2857,-0.2896,-0.2965,-0.3017,-0.3015,-0.3094,-0.311,-0.315,-0.3161,-0.3205,-0.3222,-0.3209,-0.3228,-0.3223,-0.3228,-0.3205,-0.3208,-0.3209,-0.3181,-0.3151,0,0,0,0,0,-0.2782,-0.2812,-0.2841,-0.2859,-0.29,-0.2967,-0.2996,-0.2988,-0.3057,-0.3088,-0.3142,-0.3195,-0.3233,-0.3248,-0.3291,-0.3338,-0.3305,-0.3303,-0.3305,-0.3306,-0.3293,-0.3226,-0.3218,-0.33,-0.33,-0.33,0,0,-0.2791,-0.2808,-0.2837,-0.2856,-0.2941,-0.2978,-0.2982,-0.3014,-0.3008,-0.3084,-0.3165,-0.3216,-0.3254,-0.3298,-0.3311,-0.3301,-0.3273,-0.331,-0.331,-0.3296,-0.3227,-0.3219,-0.3211,-0.3301,-0.3301,-0.3301,0,0,-0.2806,-0.2841,-0.2875,-0.2916,-0.2966,-0.2986,-0.2984,-0.3047,-0.3049,-0.3121,-0.3161,-0.3199,-0.3298,-0.3292,-0.3304,-0.3345,-0.3291,-0.3348,-0.3326,-0.3261,-0.3252,-0.3243,-0.3209,-0.3198,-0.3339,-0.3339,-0.3339,0,-0.2797,-0.2824,-0.2888,-0.2931,-0.2957,-0.299,-0.3003,-0.303,-0.3091,-0.3098,-0.3132,-0.3248,-0.3275,-0.3278,-0.3306,-0.3335,-0.3322,-0.331,-0.3257,-0.3248,-0.324,-0.3207,-0.3194,-0.3338,-0.3338,-0.3338,-0.3338,0,-0.2839,-0.2869,-0.2916,-0.2979,-0.301,-0.3025,-0.3051,-0.3079,-0.3101,-0.3104,-0.3128,-0.3195,-0.3243,-0.3243,-0.3308,-0.3256,-0.3275,-0.3268,-0.3237,-0.3229,-0.3197,-0.3184,-0.3338,-0.3338,-0.3338,-0.3338,0,0,-0.2769,-0.2899,-0.2907,-0.2937,-0.3007,-0.3014,-0.3059,-0.3051,-0.3059,-0.3098,-0.3098,-0.3158,-0.3179,-0.3196,-0.3227,-0.3187,-0.3137,-0.3225,-0.3222,-0.3168,-0.3027,-0.2931,-0.2909,-0.313,-0.3128,-0.3126,-0.3033,0,-0.2764,-0.2798,-0.2859,-0.2904,-0.2946,-0.3002,-0.3034,-0.3037,-0.3062,-0.309,-0.3077,-0.3104,-0.3153,-0.3176,-0.3147,-0.3162,-0.3103,-0.3164,-0.3064,-0.3061,-0.2955,-0.2888,-0.2687,-0.2578,-0.3021,-0.3019,-0.3017,0,-0.2752,-0.2776,-0.2797,-0.2852,-0.2876,-0.2898,-0.2934,-0.2943,-0.2991,-0.3017,-0.3039,-0.3068,-0.3056,-0.3079,-0.3028,-0.3081,-0.3051,-0.3034,-0.3029,-0.2928,-0.2938,-0.2657,-0.2538,-0.2996,-0.2997,-0.2999,-0.3,0,-0.2639,-0.2705,-0.2692,-0.2729,-0.2822,-0.2835,-0.2854,-0.2922,-0.2925,-0.2958,-0.2991,-0.2982,-0.2985,-0.2944,-0.2955,-0.2996,-0.2878,-0.2909,-0.2769,-0.2764,-0.2562,-0.2542,-0.2799,-0.2799,-0.2799,-0.2799,-0.28,0,-0.2564,-0.2579,-0.2646,-0.2664,-0.2655,-0.2746,-0.2738,-0.2789,-0.2847,-0.2846,-0.2927,-0.2926,-0.2954,-0.2924,-0.2914,-0.2803,-0.2825,-0.2735,-0.271,-0.2556,-0.2538,-0.2881,-0.2891,-0.2796,-0.2797,-0.2797,-0.2798,0,-0.2487,-0.2529,-0.2535,-0.2595,-0.2621,-0.2609,-0.2673,-0.2675,-0.2754,-0.2768,-0.2777,-0.2868,-0.2823,-0.2818,-0.2751,-0.2726,-0.2635,-0.2572,-0.2412,-0.2367,-0.2585,-0.2597,-0.2411,-0.2406,-0.2402,-0.2399,-0.2396,0,-0.2433,-0.2442,-0.2469,-0.2468,-0.2505,-0.2518,-0.2542,-0.2616,-0.2627,-0.2717,-0.2709,-0.2712,-0.2665,-0.2552,-0.2467,-0.235,-0.2474,-0.2136,-0.2144,-0.2539,-0.2534,-0.2552,-0.2569,-0.189,-0.1883,-0.1878,-0.1873,0,-0.2348,-0.2366,-0.2367,-0.2373,-0.238,-0.2373,-0.2406,-0.2407,-0.249,-0.2515,-0.2523,-0.249,-0.2397,-0.2192,-0.2069,-0.1999,-0.2148,-0.2019,-0.241,-0.2028,-0.2041,-0.204,-0.2074,-0.1824,-0.1829,-0.1833,-0.1836,-0.1837,-0.228,-0.2248,-0.2247,-0.2242,-0.2251,-0.2219,-0.2159,-0.22,-0.218,-0.2171,-0.2254,-0.2134,-0.2104,-0.1788,-0.1675,-0.1612,-0.1774,-0.1732,-0.1751,-0.1776,-0.174,-0.1746,-0.1469,-0.1472,-0.1474,-0.1476,-0.1478,0,-0.2172,-0.2156,-0.2126,-0.209,-0.2044,-0.2097,-0.2063,-0.1974,-0.1896,-0.1898,-0.1851,-0.162,-0.144,-0.1417,-0.1216,-0.1189,-0.1206,-0.1168,-0.1192,-0.124,-0.1282,-0.1225,-0.0815,-0.0814,-0.0812,-0.0811,0,0,-0.2129,-0.2051,-0.2021,-0.1888,-0.1882,-0.1751,-0.1695,-0.1593,-0.1528,-0.1399,-0.1321,-0.1363,-0.1362,-0.1089,-0.1022,-0.0882,-0.1062,-0.0839,-0.1366,-0.1441,-0.1482,-0.1594,-0.1556,0,0,0,0,0]},{"header":{"parameterUnit":"m.s-1","parameterCategory":2,"la1":30.2991,"la2":30.254,"lo1":-89.0895,"lo2":-89.0444,"dy":0.0017,"dx":0.0017,"nx":28,"ny":28,"refTime":"2024-04-11T09:00:00:Z","depth":"2","parameterNumber":3,"parameterNumberName":"V-component_of_CURRENTS"},"data":[0,0,0,0,0,0,0,0,0,0,0,0,0,0,0,0,0,0,0,0,0,0,0,0,0,0,0,0,0,0,0,0,0,0,0,0,0,0,0,0,0,0,0,0,0,0,0,0,0,0,0,0,0,0,0,0,0,0,-0.0061,-0.0061,0,-0.0002,-0.0,0.0001,0.0042,0.0041,0.0041,0.004,0.0196,0.0201,0.0205,0,0,0,0,0,0,0,0,0,0,0,0,0,-0.0083,-0.0082,-0.0061,-0.0061,-0.0061,-0.0002,-0.0,0.0001,0.0042,0.0041,0.0041,0.004,0.0195,0.02,0.0205,0,0,0,0,0,0,0,0,0,0,0,0,0,-0.0046,-0.0082,-0.0061,-0.004,-0.0038,-0.0002,-0.0,0.0002,0.0042,0.0041,0.0041,0.004,0.0193,0.0199,0.0206,0.0262,0,0,0.0227,0.023,0,0,0,0,0,0,0,0,-0.0048,-0.0044,-0.0043,-0.0041,-0.0039,0.0005,0.0049,0.0091,0.0042,0.002,0.004,0.004,0.0136,0.0148,0.0171,0.0269,0.0276,0.0228,0.0232,0.0235,0.0237,0,0,0,0,0,0,0,-0.005,-0.0046,-0.0029,-0.0043,-0.0041,-0.0014,-0.0009,0.0058,0.009,0.0022,0.0023,0.0017,0.0139,0.0164,0.0175,0.0278,0.0228,0.0234,0.0238,0.0241,0.0395,0.0395,0,0,0,0,0,0,-0.0076,-0.0048,-0.0031,-0.0028,-0.0055,-0.0014,-0.0008,-0.0002,0.0087,0.0096,0.0017,0.0018,0.0153,0.0167,0.018,0.0205,0.0235,0.0241,0.0245,0.0395,0.0395,0.0395,0,0,0,0,0,0,-0.0077,-0.0075,-0.0034,-0.0044,-0.0038,-0.0014,-0.0007,-0.0001,0.0003,0.0081,0.0094,0.001,0.0153,0.0171,0.0223,0.0213,0.0244,0.0251,0.0395,0.0395,0.0395,0.0285,0,0,0,0,0,0,-0.0077,-0.0075,-0.007,-0.0046,-0.0039,-0.0044,-0.0007,0.0001,-0.0003,-0.0001,0.008,0.0094,0.0153,0.0213,0.023,0.0223,0.0256,0.0395,0.0395,0.0395,0.0289,0.0281,0.0275,0,0,0,0,0,-0.0078,-0.008,-0.007,-0.0068,-0.0036,-0.0046,-0.004,-0.0019,-0.0003,-0.0014,0.005,0.0091,0.0225,0.0218,0.0239,0.0234,0.0395,0.0395,0.0395,0.0292,0.0283,0.0275,0,0,0,0,0,0,-0.0098,-0.0076,-0.0064,-0.0062,-0.0069,-0.0043,-0.0062,-0.0034,0.001,0.0013,0.0097,0.0116,0.0155,0.0214,0.0204,0.0279,0.0315,0.0319,0.023,0.0222,0.0215,0.0204,0.0262,0,0,0,0,0,-0.0099,-0.0096,-0.0082,-0.0092,-0.0107,-0.0085,-0.0083,-0.0066,-0.0032,-0.0016,0.0041,0.0111,0.0177,0.0211,0.027,0.0319,0.037,0.0328,0.0321,0.0315,0.0321,0.0386,0.0385,0.0395,0.0395,0.0395,0,0,-0.0127,-0.0106,-0.0113,-0.0097,-0.0109,-0.0129,-0.0086,-0.0106,-0.0096,-0.0002,0.0021,0.0084,0.0182,0.0228,0.0251,0.0273,0.0335,0.0315,0.0308,0.0319,0.0386,0.0384,0.0383,0.0395,0.0395,0.0395,0,0,-0.0194,-0.016,-0.0194,-0.0196,-0.0206,-0.0176,-0.0191,-0.0174,-0.0147,-0.0112,-0.0038,0.0021,0.0106,0.0182,0.0233,0.023,0.029,0.0239,0.0205,0.0267,0.0266,0.0266,0.0307,0.0312,0.0243,0.0242,0.0242,0,-0.0235,-0.0244,-0.0212,-0.0247,-0.025,-0.0209,-0.0246,-0.0211,-0.0167,-0.0136,-0.0127,0.002,0.009,0.0184,0.0178,0.0215,0.0249,0.0223,0.0256,0.0257,0.0259,0.0302,0.0308,0.0237,0.0238,0.0238,0.0239,0,-0.0325,-0.0333,-0.0368,-0.0376,-0.037,-0.04,-0.0353,-0.0338,-0.0295,-0.024,-0.0164,-0.0059,0.0032,0.0061,0.012,0.018,0.0196,0.0229,0.0269,0.0251,0.0297,0.0306,0.0229,0.0231,0.0233,0.0234,0,0,-0.0414,-0.0428,-0.0439,-0.045,-0.0429,-0.0433,-0.0423,-0.0382,-0.0364,-0.0294,-0.025,-0.013,-0.0068,-0.0004,0.0084,0.0146,0.018,0.0183,0.0188,0.0209,0.0295,0.0333,0.0347,0.0209,0.021,0.0212,0.0311,0,-0.0503,-0.0573,-0.0535,-0.0584,-0.0617,-0.0554,-0.0542,-0.0485,-0.0421,-0.0368,-0.0234,-0.0162,-0.009,-0.0048,0.0025,0.0143,0.0203,0.015,0.0322,0.0328,0.0354,0.0359,0.035,0.0441,0.0321,0.0322,0.0323,0,-0.0588,-0.0614,-0.0685,-0.0665,-0.0676,-0.0685,-0.0634,-0.0607,-0.0508,-0.0462,-0.036,-0.0257,-0.0132,-0.0081,0.0109,0.0064,0.0168,0.0258,0.0264,0.0351,0.0384,0.0448,0.0463,0.0339,0.0338,0.0337,0.0336,0,-0.0647,-0.0693,-0.0737,-0.0744,-0.0737,-0.0743,-0.0719,-0.0646,-0.0614,-0.051,-0.0483,-0.032,-0.0241,-0.0089,0.0104,0.0096,0.0305,0.032,0.0459,0.0462,0.0518,0.0524,0.0453,0.0453,0.0453,0.0452,0.0452,0,-0.0712,-0.0751,-0.0779,-0.0813,-0.0851,-0.0808,-0.0811,-0.0776,-0.0707,-0.0668,-0.0529,-0.0456,-0.0243,-0.0086,0.0079,0.0299,0.0289,0.046,0.0499,0.0478,0.0479,0.0448,0.0446,0.0456,0.0455,0.0455,0.0454,0,-0.0763,-0.0791,-0.0846,-0.0874,-0.0889,-0.0907,-0.089,-0.0884,-0.0821,-0.077,-0.0741,-0.0563,-0.0356,-0.0127,0.0129,0.0265,0.0474,0.0559,0.0511,0.0543,0.0588,0.0579,0.0702,0.0704,0.0706,0.0708,0.0709,0,-0.0788,-0.0838,-0.0905,-0.0948,-0.097,-0.0993,-0.1014,-0.0958,-0.0937,-0.0818,-0.0793,-0.0593,-0.0411,-0.0026,0.0249,0.0544,0.0553,0.0689,0.0687,0.0592,0.0617,0.0605,0.0594,0.0708,0.0709,0.071,0.0711,0,-0.0832,-0.0869,-0.0921,-0.1029,-0.1077,-0.1097,-0.1111,-0.1112,-0.1028,-0.0963,-0.0817,-0.0661,-0.0296,0.0048,0.0409,0.0581,0.0636,0.0719,0.0656,0.0643,0.0606,0.0628,0.0615,0.0721,0.072,0.0719,0.0718,0.0718,-0.0875,-0.092,-0.1006,-0.1089,-0.1154,-0.1183,-0.1186,-0.1154,-0.1096,-0.0944,-0.0809,-0.051,-0.0242,0.0328,0.0545,0.0751,0.0752,0.0818,0.0811,0.0804,0.0784,0.0753,0.089,0.089,0.089,0.089,0.089,0,-0.0904,-0.0968,-0.1056,-0.1154,-0.1218,-0.1237,-0.1239,-0.1191,-0.1101,-0.0885,-0.0681,-0.0304,0.0079,0.0365,0.0698,0.0869,0.084,0.0896,0.0827,0.0819,0.0811,0.0788,0.0896,0.0896,0.0896,0.0896,0,0,-0.0932,-0.1009,-0.1043,-0.1161,-0.1248,-0.1283,-0.1275,-0.1177,-0.1005,-0.0762,-0.0496,-0.0165,0.0159,0.0395,0.0599,0.0761,0.0738,0.0773,0.0757,0.0644,0.0633,0.0765,0.072,0,0,0,0,0]}],[{"header":{"parameterUnit":"m.s-1","parameterCategory":2,"la1":30.2991,"la2":30.254,"lo1":-89.0895,"lo2":-89.0444,"dy":0.0017,"dx":0.0017,"nx":28,"ny":28,"refTime":"2024-04-11T09:00:00:Z","depth":"4","parameterNumber":2,"parameterNumberName":"U-component_of_CURRENTS"},"data":[0,0,0,0,0,0,0,0,0,0,0,0,0,0,0,0,0,0,0,0,0,0,0,0,0,0,0,0,0,0,0,0,0,0,0,0,0,0,0,0,0,0,0,0,0,0,0,0,0,0,0,0,0,0,0,0,0,0,-0.1502,-0.1504,0,-0.1603,-0.1603,-0.1604,-0.1648,-0.1649,-0.1649,-0.165,-0.1748,-0.175,-0.1752,0,0,0,0,0,0,0,0,0,0,0,0,0,-0.1364,-0.1366,-0.1502,-0.1504,-0.1506,-0.1602,-0.1603,-0.1604,-0.1648,-0.1649,-0.165,-0.165,-0.1747,-0.175,-0.1752,0,0,0,0,0,0,0,0,0,0,0,0,0,-0.1433,-0.1366,-0.1502,-0.1545,-0.155,-0.1602,-0.1603,-0.1604,-0.1648,-0.1649,-0.165,-0.165,-0.1746,-0.1749,-0.1753,-0.1757,0,0,-0.1762,-0.1764,0,0,0,0,0,0,0,0,-0.1429,-0.1437,-0.1537,-0.1542,-0.1548,-0.162,-0.1591,-0.1657,-0.1648,-0.1603,-0.165,-0.1651,-0.1709,-0.1715,-0.1722,-0.1761,-0.1765,-0.1763,-0.1765,-0.1766,-0.1767,0,0,0,0,0,0,0,-0.1424,-0.1434,-0.1535,-0.1539,-0.1546,-0.1565,-0.1575,-0.1603,-0.1645,-0.1607,-0.1613,-0.1635,-0.1711,-0.1719,-0.1725,-0.1767,-0.1763,-0.1765,-0.1767,-0.1769,-0.1914,-0.1916,0,0,0,0,0,0,-0.1425,-0.1429,-0.1532,-0.1538,-0.1498,-0.1567,-0.1578,-0.159,-0.1645,-0.1656,-0.1634,-0.1637,-0.1713,-0.1721,-0.1729,-0.1823,-0.1766,-0.1769,-0.1771,-0.1912,-0.1915,-0.1917,0,0,0,0,0,0,-0.1421,-0.1433,-0.1528,-0.1492,-0.1507,-0.157,-0.1583,-0.1592,-0.1633,-0.1667,-0.1676,-0.167,-0.1714,-0.1724,-0.178,-0.1824,-0.177,-0.1773,-0.191,-0.1913,-0.1916,-0.1956,0,0,0,0,0,0,-0.1417,-0.143,-0.1447,-0.1492,-0.1509,-0.1585,-0.1583,-0.1594,-0.1647,-0.1652,-0.17,-0.1708,-0.1716,-0.1775,-0.1783,-0.1827,-0.1776,-0.1908,-0.1911,-0.1915,-0.1952,-0.196,-0.1967,0,0,0,0,0,-0.1411,-0.1427,-0.1447,-0.1461,-0.1527,-0.1588,-0.1598,-0.164,-0.1648,-0.1676,-0.1704,-0.1708,-0.1805,-0.1779,-0.1788,-0.1834,-0.1906,-0.191,-0.1915,-0.1949,-0.1959,-0.1967,0,0,0,0,0,0,-0.138,-0.1435,-0.1457,-0.1491,-0.1551,-0.1599,-0.1629,-0.1657,-0.1699,-0.1708,-0.1727,-0.1737,-0.1801,-0.1814,-0.1785,-0.1888,-0.1859,-0.1866,-0.1882,-0.1891,-0.1899,-0.1896,-0.1778,0,0,0,0,0,-0.1381,-0.1404,-0.147,-0.15,-0.1531,-0.1584,-0.1617,-0.1652,-0.1694,-0.1715,-0.1754,-0.1791,-0.1821,-0.1853,-0.1882,-0.1938,-0.1932,-0.1977,-0.1985,-0.199,-0.1996,-0.202,-0.2029,-0.1931,-0.1931,-0.1931,0,0,-0.1376,-0.1412,-0.1426,-0.1496,-0.1538,-0.1589,-0.1605,-0.1667,-0.1714,-0.1718,-0.1793,-0.1816,-0.184,-0.1899,-0.1931,-0.1921,-0.2014,-0.1996,-0.2001,-0.2003,-0.2026,-0.2035,-0.2043,-0.1934,-0.1934,-0.1933,0,0,-0.1381,-0.1414,-0.1441,-0.1483,-0.1563,-0.1608,-0.1635,-0.1711,-0.1752,-0.1825,-0.1832,-0.1882,-0.1949,-0.197,-0.1985,-0.2052,-0.2044,-0.2074,-0.2119,-0.2142,-0.215,-0.2157,-0.2148,-0.2154,-0.2087,-0.2087,-0.2087,0,-0.1392,-0.142,-0.1463,-0.1498,-0.1542,-0.162,-0.167,-0.1719,-0.1807,-0.1846,-0.1861,-0.1956,-0.1979,-0.2032,-0.2059,-0.2068,-0.207,-0.2079,-0.215,-0.2156,-0.2162,-0.2152,-0.2158,-0.2089,-0.2089,-0.2089,-0.2088,0,-0.1403,-0.144,-0.1461,-0.1532,-0.1584,-0.1641,-0.1721,-0.1791,-0.1859,-0.1908,-0.1996,-0.203,-0.2086,-0.2108,-0.2106,-0.2169,-0.215,-0.2145,-0.2121,-0.2174,-0.216,-0.2165,-0.2093,-0.2092,-0.2091,-0.209,0,0,-0.1401,-0.1466,-0.1476,-0.151,-0.1609,-0.1656,-0.1743,-0.1848,-0.1913,-0.1997,-0.2074,-0.2132,-0.216,-0.2179,-0.2192,-0.2223,-0.2263,-0.2213,-0.2213,-0.2192,-0.2298,-0.2112,-0.21,-0.2273,-0.2275,-0.2276,-0.2265,0,-0.1418,-0.1478,-0.1516,-0.1589,-0.1628,-0.1714,-0.179,-0.1883,-0.1977,-0.207,-0.2119,-0.2189,-0.2183,-0.2221,-0.2251,-0.2262,-0.2281,-0.2265,-0.2261,-0.226,-0.2078,-0.2101,-0.2281,-0.2269,-0.227,-0.2271,-0.2271,0,-0.1411,-0.1458,-0.1527,-0.1617,-0.1648,-0.1711,-0.1853,-0.193,-0.2057,-0.2123,-0.2199,-0.2243,-0.2301,-0.2292,-0.233,-0.2322,-0.2316,-0.2318,-0.2317,-0.2133,-0.2083,-0.221,-0.228,-0.2279,-0.2279,-0.2278,-0.2278,0,-0.1363,-0.1459,-0.1522,-0.1547,-0.1667,-0.1729,-0.1815,-0.1948,-0.2021,-0.2156,-0.2218,-0.2292,-0.2335,-0.2353,-0.2347,-0.2355,-0.2371,-0.2376,-0.2198,-0.2184,-0.2337,-0.233,-0.2399,-0.2399,-0.2399,-0.2399,-0.2399,0,-0.1338,-0.138,-0.1506,-0.1526,-0.1611,-0.1708,-0.1822,-0.191,-0.205,-0.2121,-0.2233,-0.228,-0.2357,-0.2374,-0.2365,-0.2271,-0.2376,-0.2197,-0.2169,-0.2353,-0.2348,-0.2339,-0.2332,-0.2399,-0.2399,-0.2399,-0.2399,0,-0.1248,-0.1332,-0.1391,-0.1531,-0.1576,-0.1632,-0.1795,-0.1876,-0.2015,-0.2111,-0.2151,-0.2278,-0.2278,-0.2309,-0.2329,-0.2262,-0.2215,-0.2156,-0.2328,-0.2312,-0.2014,-0.201,-0.1966,-0.1959,-0.1954,-0.1949,-0.1945,0,-0.1208,-0.123,-0.1363,-0.1401,-0.1464,-0.1575,-0.1654,-0.1824,-0.1904,-0.2078,-0.2102,-0.2167,-0.2217,-0.2084,-0.2139,-0.2077,-0.2055,-0.203,-0.2043,-0.1991,-0.197,-0.1975,-0.1979,-0.1936,-0.1935,-0.1933,-0.1932,0,-0.1123,-0.1177,-0.123,-0.1302,-0.1382,-0.1467,-0.159,-0.1638,-0.1829,-0.1965,-0.1987,-0.1988,-0.1976,-0.1963,-0.1912,-0.1881,-0.2051,-0.1971,-0.1984,-0.1996,-0.1955,-0.1941,-0.1951,-0.1912,-0.1915,-0.1917,-0.1918,0,-0.1058,-0.1067,-0.1141,-0.1191,-0.1275,-0.1327,-0.1421,-0.1514,-0.1606,-0.1808,-0.1798,-0.186,-0.1949,-0.1859,-0.182,-0.1756,-0.1741,-0.1711,-0.1737,-0.1759,-0.1693,-0.1611,-0.143,0,0,0,0,0,-0.0999,-0.099,-0.1028,-0.1072,-0.1149,-0.1194,-0.1363,-0.1475,-0.166,-0.1618,-0.1707,-0.1682,-0.1635,-0.1675,-0.156,-0.1719,-0.1744,-0.1582,-0.1723,-0.1804,-0.1826,-0.1766,0,0,0,0,0,0,-0.0944,-0.0974,-0.0984,-0.0961,-0.0964,-0.1041,-0.1141,-0.1277,-0.1281,-0.1458,-0.1432,-0.155,-0.1516,-0.163,-0.1502,-0.1511,-0.1564,-0.1623,-0.1619,-0.1791,-0.1812,-0.183,-0.1775,0,0,0,0,0]},{"header":{"parameterUnit":"m.s-1","parameterCategory":2,"la1":30.2991,"la2":30.254,"lo1":-89.0895,"lo2":-89.0444,"dy":0.0017,"dx":0.0017,"nx":28,"ny":28,"refTime":"2024-04-11T09:00:00:Z","depth":"4","parameterNumber":3,"parameterNumberName":"V-component_of_CURRENTS"},"data":[0,0,0,0,0,0,0,0,0,0,0,0,0,0,0,0,0,0,0,0,0,0,0,0,0,0,0,0,0,0,0,0,0,0,0,0,0,0,0,0,0,0,0,0,0,0,0,0,0,0,0,0,0,0,0,0,0,0,-0.0011,-0.0011,0,0.0005,0.0006,0.0006,0.0056,0.0056,0.0057,0.0058,0.0125,0.0126,0.0127,0,0,0,0,0,0,0,0,0,0,0,0,0,0.0035,0.0034,-0.0011,-0.0011,-0.0011,0.0005,0.0006,0.0006,0.0055,0.0057,0.0058,0.0059,0.0125,0.0126,0.0127,0,0,0,0,0,0,0,0,0,0,0,0,0,0.0032,0.0033,-0.0011,0.0014,0.0016,0.0005,0.0006,0.0006,0.0055,0.0057,0.0058,0.0059,0.0125,0.0126,0.0128,0.011,0,0,0.0132,0.0133,0,0,0,0,0,0,0,0,0.0032,0.003,0.001,0.0012,0.0014,0.0028,0.0047,0.0043,0.0055,0.0043,0.0058,0.006,0.0095,0.0099,0.0102,0.0113,0.0116,0.0132,0.0133,0.0134,0.0134,0,0,0,0,0,0,0,0.0032,0.003,-0.0002,0.001,0.0012,0.0036,0.0037,0.0046,0.0064,0.0044,0.0047,0.0045,0.0097,0.01,0.0104,0.0117,0.0132,0.0133,0.0134,0.0135,0.0139,0.0138,0,0,0,0,0,0,0.0021,0.0029,-0.0003,-0.0002,0.0024,0.0034,0.0035,0.0024,0.0063,0.0069,0.0044,0.0047,0.0097,0.0102,0.0106,0.0108,0.0134,0.0135,0.0136,0.0139,0.0139,0.0138,0,0,0,0,0,0,0.0022,0.0018,-0.0004,0.0013,0.0012,0.0031,0.0019,0.0024,0.003,0.0062,0.007,0.0046,0.0098,0.0104,0.0108,0.011,0.0136,0.0137,0.014,0.0139,0.0138,0.0099,0,0,0,0,0,0,0.0023,0.0018,0.0009,0.0012,0.001,-0.0016,0.0017,0.0023,0.0026,0.0031,0.0066,0.0073,0.01,0.0105,0.0109,0.0113,0.0138,0.0141,0.014,0.0138,0.0101,0.0096,0.0092,0,0,0,0,0,0.0025,0.0004,0.0009,0.0005,-0.0004,-0.0018,-0.0016,0.0004,0.0024,0.0018,0.0041,0.0072,0.01,0.0105,0.011,0.0115,0.0142,0.014,0.0139,0.0103,0.0097,0.0093,0,0,0,0,0,0,0.002,0.0006,0.0012,-0.0011,-0.0017,-0.001,-0.0017,-0.0002,0.001,0.0017,0.0055,0.0063,0.0067,0.0088,0.0094,0.011,0.0129,0.0128,0.01,0.0095,0.0091,0.0091,0.0139,0,0,0,0,0,0.0012,-0.0006,-0.0013,-0.0032,-0.0039,-0.0029,-0.003,-0.002,-0.0011,-0.0004,0.0022,0.0047,0.0061,0.0076,0.0087,0.0092,0.0137,0.01,0.0095,0.0092,0.0093,0.0173,0.0177,0.0132,0.0132,0.0132,0,0,0.0004,-0.0005,-0.0015,-0.0034,-0.0036,-0.0061,-0.0026,-0.0039,-0.0047,0.0,0.0,0.0026,0.0055,0.0061,0.0067,0.0084,0.0122,0.0089,0.0086,0.009,0.0172,0.0176,0.0181,0.0131,0.0131,0.0131,0,0,-0.003,-0.0031,-0.0063,-0.0074,-0.0088,-0.0083,-0.009,-0.0088,-0.0073,-0.0081,-0.0042,-0.0013,-0.0003,0.0036,0.0052,0.0029,0.0089,0.003,0.002,0.0097,0.0102,0.0107,0.0151,0.016,0.0038,0.0038,0.0038,0,-0.0042,-0.0079,-0.0073,-0.0108,-0.012,-0.0099,-0.0134,-0.0125,-0.0116,-0.0097,-0.009,-0.0036,-0.0012,0.0027,0.0017,0.0023,0.0064,0.0039,0.0094,0.01,0.0106,0.015,0.0161,0.0036,0.0036,0.0036,0.0037,0,-0.0102,-0.0131,-0.0152,-0.0188,-0.0197,-0.0225,-0.0218,-0.0211,-0.0191,-0.0167,-0.0129,-0.0087,-0.0044,-0.0033,-0.002,0.0036,0.0048,0.0074,0.0112,0.0109,0.0154,0.0167,0.0033,0.0034,0.0034,0.0035,0,0,-0.0134,-0.0187,-0.0195,-0.0218,-0.0242,-0.0255,-0.0266,-0.0258,-0.0244,-0.0212,-0.0179,-0.0141,-0.009,-0.0069,-0.0024,0.0041,0.0107,0.0069,0.0074,0.012,0.0258,0.023,0.0241,0.0151,0.0153,0.0155,0.0266,0,-0.0186,-0.0264,-0.0271,-0.0327,-0.0363,-0.0343,-0.0354,-0.0334,-0.0298,-0.026,-0.018,-0.0145,-0.0111,-0.0083,-0.0011,0.0071,0.014,0.0073,0.0248,0.0252,0.0236,0.0255,0.0162,0.0276,0.0279,0.0281,0.0282,0,-0.0243,-0.0284,-0.0359,-0.0389,-0.0402,-0.043,-0.0415,-0.0417,-0.0352,-0.0322,-0.0246,-0.0182,-0.0093,-0.0061,0.0106,0.0061,0.0153,0.0226,0.0233,0.0232,0.0248,0.0285,0.0305,0.0303,0.0302,0.03,0.0299,0,-0.0265,-0.0337,-0.0395,-0.0413,-0.0452,-0.0465,-0.0471,-0.0432,-0.0422,-0.0344,-0.032,-0.0198,-0.0138,-0.0001,0.0138,0.0129,0.0325,0.0338,0.0406,0.0404,0.0414,0.0408,0.0475,0.0475,0.0475,0.0475,0.0474,0,-0.0308,-0.0344,-0.0414,-0.0445,-0.0495,-0.05,-0.0519,-0.0502,-0.0466,-0.0444,-0.0346,-0.0286,-0.0116,0.0015,0.0142,0.0302,0.0337,0.0408,0.044,0.0389,0.0379,0.0422,0.0414,0.0479,0.0478,0.0477,0.0476,0,-0.0303,-0.0359,-0.0422,-0.0488,-0.0513,-0.0539,-0.0573,-0.0575,-0.0541,-0.0505,-0.0483,-0.0345,-0.0176,-0.0005,0.0219,0.0298,0.046,0.0517,0.043,0.0455,0.0483,0.0471,0.0594,0.0594,0.0594,0.0594,0.0594,0,-0.0306,-0.0347,-0.0455,-0.0498,-0.053,-0.0577,-0.0611,-0.0614,-0.0609,-0.0528,-0.0506,-0.0345,-0.0234,0.0064,0.0229,0.0466,0.0501,0.0562,0.0536,0.048,0.05,0.0488,0.0477,0.0594,0.0594,0.0594,0.0594,0,-0.0294,-0.0343,-0.0398,-0.05,-0.0563,-0.0625,-0.0666,-0.068,-0.0661,-0.0633,-0.0494,-0.0333,-0.0144,0.0076,0.0256,0.0427,0.0503,0.0564,0.0565,0.0541,0.0483,0.0499,0.0488,0.0595,0.0595,0.0595,0.0595,0,-0.0279,-0.0317,-0.0407,-0.0481,-0.0566,-0.0639,-0.0676,-0.0663,-0.0661,-0.0579,-0.0524,-0.0311,-0.0183,0.0059,0.0231,0.0383,0.0416,0.0445,0.0452,0.0453,0.037,0.0272,0.0356,0,0,0,0,0,-0.0258,-0.0297,-0.0376,-0.0474,-0.0557,-0.0604,-0.0689,-0.0716,-0.0712,-0.0614,-0.0569,-0.038,-0.011,0.002,0.0173,0.0207,0.0415,0.0383,0.0444,0.0597,0.0597,0.0519,0,0,0,0,0,0,-0.0246,-0.0311,-0.0361,-0.0441,-0.0494,-0.0588,-0.0648,-0.0664,-0.0608,-0.0569,-0.0411,-0.0335,-0.0063,-0.0159,0.0197,0.0239,0.0291,0.0516,0.0518,0.0598,0.0597,0.0597,0.0517,0,0,0,0,0]}]]